Location: Unspecified
(35.7250°N, 0.0000°E)
Time: 16:52:26
(UTC+00:00)

Explorer 7 - Pass Details

Date: 27 June 2019
Orbit: 485 x 680 km, 50.3° (Epoch: 17 July)

Event Time Altitude Azimuth Distance (km) Brightness Sun altitude
Rises 14:08:06 0° 300° (WNW) 2,965 10.8 60.3°
Reaches altitude 10° 14:10:35 10° 291° (WNW) 2,074 10.3 59.8°
Maximum altitude 14:14:53 33° 228° (SW) 1,126 9.6 58.9°
Drops below altitude 10° 14:19:15 10° 165° (SSE) 2,106 9.9 58.1°
Sets 14:21:48 0° 156° (SSE) 3,017 10.5 57.6°
